Regional Weather Roundup
Issued by NWS Charleston, WV

Home | Current Version | Previous Version | Graphics & Text | Print | Product List | Glossary On
Versions: 1 2 3 4 5 6 7 8 9 10 11 12 13 14 15 16 17 18 19 20 21 22 23 24 25 26 27 28 29 30 31 32 33 34 35 36 37 38 39 40 41 42 43 44 45 46 47 48 49 50
000
ASUS41 KRLX 301910
RWRRLX
West Virginia Regional Weather Roundup
National Weather Service Charleston WV
300 PM EDT THU JUL 30 2015

Note: "fair" indicates few or no clouds below 12,000 feet with no
significant weather and/or obstructions to visibility.

WVZ003-302000-
Northern Panhandle of West Virginia

CITY           SKY/WX    TMP DP  RH WIND       PRES   REMARKS
WHEELING       SUNNY     86  56  35 W8        29.98F
$$

WVZ009-302000-
Northwest West Virginia

CITY           SKY/WX    TMP DP  RH WIND       PRES   REMARKS
PARKERSBURG    SUNNY     87  57  35 NW9G16    30.02F
$$

WVZ006-302000-
Western West Virginia

CITY           SKY/WX    TMP DP  RH WIND       PRES   REMARKS
HUNTINGTON     MOSUNNY   85  60  42 W9        30.03F
$$

WVZ015-302000-
West Central West Virginia

CITY           SKY/WX    TMP DP  RH WIND       PRES   REMARKS
CHARLESTON     MOSUNNY   85  61  44 N6        30.02F
$$

WVZ022-031-302000-
North Central West Virginia

CITY           SKY/WX    TMP DP  RH WIND       PRES   REMARKS
CLARKSBURG     MOSUNNY   84  59  42 NW13      29.99F
MORGANTOWN     SUNNY     88  56  33 W9        29.99F
$$

WVZ025-035-042-045-302000-
Southern West Virginia

CITY           SKY/WX    TMP DP  RH WIND       PRES   REMARKS
BECKLEY        PTSUNNY   81  69  67 N9        30.08F
LOGAN            N/A     82  64  54 N6G13     30.03F
BLUEFIELD      MOSUNNY   84  67  56 W12       30.10F
LEWISBURG      MOSUNNY   85  65  50 W9        30.04F
$$

WVZ047-302000-
Northern Mountains of West Virginia

CITY           SKY/WX    TMP DP  RH WIND       PRES   REMARKS
ELKINS         MOSUNNY   83  65  54 NW10G18   30.03F
$$

WVZ052-302000-
Eastern Panhandle of West Virginia

CITY           SKY/WX    TMP DP  RH WIND       PRES   REMARKS
MARTINSBURG    CLOUDY    84  73  69 SW8       29.89F
PETERSBURG     PTSUNNY  N/A N/A N/A W8        29.93F
$$


USA.gov is the U.S. government's official web portal to all federal, state and local government web resources and services.